Location: Vancouver
(49.2500°N, 123.1330°W)
Time: 18:51:13
(UTC-07:00)

Transit 2A Rocket - Visible Passes

Search period start: 31 October 2014 00:00
Search period end: 09 November 2014 23:00
Orbit: 590 x 918 km, 66.7° (Epoch: 31 October)

Date Brightness Start Highest point End Pass type
(mag) Time Alt. Az. Time Alt. Az. Time Alt. Az.
31 Oct 7.3 20:01:04 10° NW 20:03:09 12° NNW 20:05:17 10° NNE visible
31 Oct 7.7 21:45:59 10° NNW 21:46:02 10° N 21:46:02 10° N visible
01 Nov 7.2 19:18:05 10° NW 19:20:48 15° NNW 19:23:38 10° NNE visible
01 Nov 7.5 21:04:08 10° NNW 21:05:18 11° N 21:05:18 11° N visible
02 Nov 6.9 17:35:13 10° WNW 17:38:31 18° NNW 17:42:00 10° NNE visible
02 Nov 7.4 19:21:53 10° NNW 19:23:18 11° N 19:24:33 10° NNE visible
03 Nov 7.3 18:39:08 10° NNW 18:40:52 12° N 18:42:39 10° NNE visible
03 Nov 7.6 20:23:06 10° NNW 20:23:44 12° N 20:23:44 12° N visible
04 Nov 7.2 17:56:10 10° NW 17:58:28 13° NNW 18:00:51 10° NNE visible
04 Nov 7.3 19:41:22 10° NNW 19:42:59 12° N 19:42:59 12° N visible
05 Nov 7.0 17:13:12 10° WNW 17:16:07 16° NNW 17:19:11 10° NNE visible
05 Nov 7.3 18:59:25 10° NNW 19:01:02 11° N 19:02:14 11° NNE visible
05 Nov 7.7 20:41:50 10° NNW 20:42:11 11° NNW 20:42:11 11° NNW visible
06 Nov 7.3 18:17:01 10° NNW 18:18:35 11° N 18:20:12 10° NNE visible
06 Nov 7.4 20:00:11 10° NNW 20:01:27 14° N 20:01:27 14° N visible
07 Nov 7.2 17:34:12 10° NNW 17:36:09 12° N 17:38:10 10° NNE visible
07 Nov 7.2 19:18:30 10° NNW 19:20:42 14° N 19:20:42 14° N visible
07 Nov 7.9 21:00:33 10° NNW 21:00:39 11° NNW 21:00:39 11° NNW visible
08 Nov 7.2 18:36:41 10° NNW 18:38:44 12° N 18:39:59 11° NNE visible
08 Nov 7.4 20:18:54 10° NNW 20:19:56 14° NNW 20:19:56 14° NNW visible
09 Nov 7.2 17:54:37 10° NNW 17:56:18 11° N 17:58:01 10° NNE visible
09 Nov 7.1 19:37:15 10° NNW 19:39:13 17° N 19:39:13 17° N visible
